Simultaneous Nadir Overpasses (SNOs) Predictions

Prediction of SNOs between METOP-B and TERRA Satellite Orbit:

Table of predicted SNOs for the next 14.0 days since TLE Epoch: 8/30/2014
Index Date (METOP-B) Time (METOP-B) Lat,Lon (METOP-B) SZA (METOP-B ) Date (TERRA) Time (TERRA) Lat,Lon (TERRA) SZA (TERRA ) Distance(km) Time Diff (sec)
1 09/01/2014 11:31:22 81.34, 54.96 76.01 09/01/2014 11:31:43 81.34, 54.98 76.02 0.42 21
2 09/01/2014 12:22:03 -81.34,-137.58 103.97 09/01/2014 12:21:10 -81.33,-137.48 103.99 1.75 53
3 09/04/2014 07:05:42 81.34, 121.44 77.06 09/04/2014 07:05:57 81.34, 121.49 77.08 0.87 15
4 09/04/2014 07:56:23 -81.34, -71.09 102.91 09/04/2014 07:55:24 -81.34, -70.94 102.92 2.45 59
5 09/07/2014 02:40:03 81.34,-172.10 78.13 09/07/2014 02:40:12 81.34,-172.18 78.13 1.22 9
6 09/
